QPF
0.00 0.00 0.00 0.00 0.00 0.00 0.00 0.00 0.00 0.00 0.00 0.00 0.00 0.00 0.00 0.00 0.00 0.00 0.00 0.00 0.00 0.00 0.00 0.00 0.00 0.00 0.00 0.00 0.00 0.00 0.00 0.00 0.00 0.00 0.13 0.16 0.12 0.17 0.15 0.27 0.07 0.01 0.01 0.09
0.00 0.00 0.00 0.00 0.00 0.00 0.00 0.00 0.00 0.00 0.00 0.00 0.00 0.00 0.00 0.00 0.00 0.00 0.00 0.00 0.00 0.00 0.00 0.01 0.00 0.00 0.00 0.00 0.00 0.00 0.00 0.00 0.00 0.02 0.12 0.10 0.10 0.09 0.07 0.04 0.16 0.12 0.05 0.11
0.00 0.00 0.00 0.00 0.00 0.00 0.00 0.00 0.00 0.00 0.00 0.00 0.00 0.00 0.00 0.00 0.00 0.00 0.00 0.00 0.00 0.00 0.00 0.00 0.00 0.00 0.00 0.00 0.00 0.00 0.00 0.00 0.00 0.00 0.03 0.02 0.03 0.08 0.07 0.04 0.06 0.16 0.13 0.09
0.00 0.01 0.00 0.00 0.00 0.00 0.00 0.00 0.00 0.00 0.00 0.00 0.00 0.00 0.00 0.00 0.00 0.00 0.00 0.00 0.00 0.00 0.01 0.00 0.00 0.00 0.00 0.00 0.00 0.00 0.00 0.00 0.00 0.00 0.00 0.00 0.01 0.05 0.07 0.05 0.06 0.07 0.14 0.10
0.01 0.00 0.00 0.00 0.00 0.00 0.00 0.00 0.00 0.00 0.00 0.00 0.00 0.00 0.00 0.00 0.00 0.00 0.00 0.00 0.00 0.00 0.00 0.00 0.00 0.00 0.00 0.00 0.00 0.00 0.00 0.00 0.00 0.00 0.00 0.00 0.01 0.01 0.04 0.05 0.06 0.05 0.07 0.12
0.01 0.00 0.01 0.00 0.01 0.00 0.00 0.00 0.00 0.01 0.00 0.00 0.00 0.00 0.00 0.00 0.00 0.00 0.00 0.00 0.00 0.00 0.00 0.00 0.00 0.00 0.00 0.00 0.00 0.00 0.00 0.00 0.00 0.00 0.00 0.00 0.00 0.01 0.03 0.05 0.06 0.05 0.05 0.07
0.00 0.02 0.01 0.01 0.01 0.02 0.00 0.00 0.01 0.02 0.01 0.00 0.00 0.00 0.00 0.00 0.00 0.00 0.00 0.00 0.00 0.00 0.00 0.00 0.00 0.00 0.00 0.00 0.00 0.00 0.00 0.00 0.00 0.00 0.00 0.01 0.01 0.01 0.02 0.04 0.06 0.05 0.06 0.06
0.01 0.02 0.01 0.00 0.01 0.03 0.03 0.00 0.03 0.05 0.03 0.00 0.00 0.00 0.00 0.00 0.00 0.00 0.00 0.00 0.00 0.00 0.00 0.00 0.00 0.00 0.00 0.00 0.01 0.00 0.00 0.00 0.00 0.00 0.01 0.01 0.01 0.00 0.01 0.02 0.04 0.05 0.04 0.04
0.01 0.01 0.01 0.01 0.01 0.02 0.04 0.00 0.04 0.08 0.07 0.00 0.00 0.00 0.00 0.00 0.01 0.00 0.00 0.00 0.00 0.00 0.00 0.00 0.01 0.01 0.01 0.01 0.02 0.00 0.00 0.00 0.00 0.00 0.00 0.01 0.01 0.00 0.00 0.01 0.01 0.01 0.02 0.03
0.01 0.01 0.01 0.01 0.01 0.02 0.06 0.02 0.03 0.11 0.07 0.00 0.00 0.00 0.00 0.00 0.00 0.00 0.00 0.00 0.00 0.00 0.00 0.00 0.00 0.00 0.00 0.00 0.00 0.00 0.00 0.00 0.00 0.00 0.00 0.01 0.00 0.00 0.00 0.00 0.01 0.00 0.00 0.02
0.03 0.02 0.02 0.01 0.01 0.03 0.05 0.02 0.01 0.05 0.09 0.01 0.00 0.00 0.00 0.00 0.00 0.00 0.01 0.02 0.01 0.00 0.00 0.00 0.00 0.00 0.00 0.00 0.00 0.00 0.00 0.00 0.00 0.00 0.00 0.00 0.00 0.00 0.00 0.01 0.01 0.00 0.00 0.00
0.02 0.01 0.01 0.00 0.02 0.04 0.06 0.02 0.02 0.09 0.18 0.03 0.00 0.00 0.00 0.00 0.00 0.00 0.01 0.03 0.01 0.00 0.00 0.00 0.00 0.00 0.00 0.00 0.00 0.00 0.00 0.00 0.00 0.00 0.00 0.00 0.00 0.00 0.01 0.00 0.00 0.00 0.00 0.00
0.00 0.00 0.00 0.01 0.02 0.02 0.05 0.01 0.07 0.25 0.17 0.02 0.00 0.00 0.00 0.00 0.00 0.03 0.07 0.02 0.00 0.00 0.00 0.00 0.00 0.00 0.00 0.00 0.00 0.00 0.00 0.00 0.00 0.00 0.01 0.01 0.01 0.00 0.00 0.00 0.00 0.00 0.00 0.00
0.00 0.01 0.02 0.02 0.01 0.01 0.06 0.01 0.01 0.03 0.03 0.00 0.00 0.00 0.00 0.00 0.00 0.00 0.00 0.00 0.00 0.00 0.00 0.00 0.00 0.00 0.00 0.00 0.00 0.00 0.00 0.00 0.00 0.00 0.01 0.02 0.01 0.00 0.00 0.00 0.00 0.00 0.00 0.00
0.01 0.03 0.01 0.01 0.01 0.00 0.00 0.02 0.17 0.16 0.04 0.02 0.04 0.01 0.00 0.00 0.00 0.01 0.04 0.02 0.00 0.00 0.00 0.00 0.00 0.00 0.00 0.00 0.00 0.00 0.00 0.00 0.00 0.00 0.01 0.01 0.01 0.01 0.00 0.00 0.00 0.00 0.00 0.00
0.02 0.02 0.00 0.00 0.00 0.00 0.00 0.01 0.01 0.01 0.00 0.00 0.03 0.02 0.00 0.00 0.00 0.00 0.00 0.00 0.00 0.00 0.00 0.00 0.00 0.00 0.01 0.00 0.00 0.00 0.00 0.01 0.00 0.00 0.00 0.00 0.00 0.01 0.00 0.00 0.00 0.00 0.00 0.00
0.01 0.01 0.00 0.02 0.00 0.00 0.02 0.05 0.05 0.01 0.00 0.00 0.02 0.02 0.00 0.00 0.01 0.01 0.00 0.00 0.00 0.00 0.00 0.00 0.00 0.00 0.00 0.00 0.00 0.00 0.00 0.01 0.00 0.00 0.00 0.00 0.00 0.00 0.00 0.00 0.00 0.00 0.00 0.00
0.00 0.00 0.01 0.02 0.01 0.00 0.00 0.08 0.09 0.01 0.00 0.00 0.01 0.02 0.00 0.00 0.00 0.04 0.00 0.00 0.00 0.00 0.00 0.00 0.00 0.00 0.00 0.00 0.01 0.00 0.00 0.01 0.00 0.00 0.00 0.00 0.00 0.00 0.00 0.00 0.00 0.00 0.00 0.00
0.00 0.00 0.01 0.00 0.00 0.00 0.00 0.00 0.00 0.00 0.01 0.01 0.00 0.02 0.01 0.00 0.00 0.00 0.02 0.00 0.00 0.00 0.00 0.00 0.00 0.00 0.00 0.00 0.00 0.00 0.00 0.00 0.00 0.00 0.00 0.00 0.00 0.00 0.00 0.00 0.00 0.00 0.00 0.00
0.00 0.00 0.00 0.00 0.00 0.00 0.01 0.00 0.00 0.00 0.00 0.00 0.01 0.00 0.00 0.00 0.00 0.02 0.01 0.01 0.00 0.00 0.00 0.00 0.00 0.00 0.01 0.01 0.00 0.00 0.00 0.00 0.00 0.00 0.00 0.00 0.00 0.00 0.00 0.00 0.00 0.00 0.00 0.00
0.00 0.00 0.00 0.00 0.00 0.00 0.00 0.00 0.00 0.00 0.00 0.00 0.01 0.00 0.00 0.00 0.00 0.01 0.01 0.01 0.01 0.00 0.00 0.00 0.00 0.01 0.01 0.01 0.00 0.00 0.00 0.00 0.00 0.00 0.00 0.00 0.00 0.00 0.00 0.00 0.00 0.00 0.00 0.00
0.00 0.00 0.00 0.00 0.00 0.00 0.00 0.00 0.00 0.00 0.01 0.00 0.00 0.00 0.00 0.00 0.00 0.01 0.01 0.02 0.01 0.00 0.00 0.00 0.00 0.02 0.01 0.01 0.01 0.00 0.00 0.00 0.00 0.00 0.00 0.00 0.00 0.00 0.00 0.00 0.00 0.00 0.00 0.00
0.00 0.00 0.00 0.00 0.00 0.00 0.00 0.00 0.00 0.00 0.00 0.00 0.00 0.00 0.00 0.01 0.01 0.01 0.00 0.00 0.01 0.01 0.00 0.00 0.01 0.01 0.00 0.00 0.00 0.00 0.00 0.00 0.00 0.00 0.00 0.00 0.00 0.00 0.00 0.00 0.00 0.00 0.00 0.00
0.00 0.00 0.00 0.00 0.00 0.00 0.01 0.01 0.01 0.01 0.01 0.00 0.00 0.00 0.00 0.00 0.00 0.01 0.00 0.01 0.00 0.00 0.00 0.01 0.01 0.00 0.00 0.00 0.00 0.00 0.00 0.00 0.00 0.00 0.00 0.00 0.00 0.00 0.00 0.00 0.00 0.00 0.00 0.00
0.00 0.00 0.00 0.00 0.01 0.00 0.00 0.00 0.00 0.00 0.00 0.00 0.00 0.01 0.00 0.00 0.00 0.00 0.01 0.00 0.00 0.00 0.01 0.01 0.01 0.00 0.00 0.00 0.00 0.00 0.00 0.00 0.00 0.00 0.00 0.00 0.00 0.00 0.00 0.00 0.00 0.00 0.00 0.00
0.00 0.00 0.00 0.00 0.00 0.00 0.00 0.00 0.00 0.00 0.00 0.00 0.01 0.00 0.00 0.00 0.00 0.00 0.00 0.00 0.01 0.01 0.01 0.01 0.00 0.00 0.00 0.00 0.00 0.00 0.00 0.00 0.00 0.00 0.00 0.00 0.00 0.00 0.00 0.00 0.00 0.00 0.00 0.00
0.00 0.00 0.00 0.00 0.00 0.00 0.00 0.00 0.00 0.00 0.00 0.00 0.00 0.00 0.00 0.00 0.00 0.00 0.00 0.01 0.01 0.01 0.00 0.00 0.01 0.00 0.00 0.00 0.00 0.00 0.00 0.00 0.00 0.00 0.00 0.00 0.00 0.00 0.00 0.00 0.00 0.00 0.00 0.00
MSLP
1028.02 1027.60 1027.01 1026.53 1026.07 1025.42 1024.92 1025.14 1024.45 1022.39 1022.02 1023.10 1024.24 1025.02 1024.61 1024.51 1024.28 1024.03 1023.97 1023.86 1024.05 1024.33 1024.46 1024.22 1023.77 1023.00 1022.34 1022.24 1022.05 1022.63 1022.55 1022.13 1021.24 1019.96 1019.99 1019.35 1019.27 1018.62 1017.33 1015.30 1013.06 1012.80 1014.26 1019.63
1027.96 1027.67 1027.30 1026.90 1026.41 1025.78 1026.04 1026.09 1024.75 1022.93 1023.08 1024.52 1025.35 1025.40 1025.24 1024.65 1024.18 1024.06 1024.04 1024.32 1024.56 1024.60 1024.66 1024.58 1023.93 1023.09 1022.43 1022.25 1022.31 1022.60 1022.85 1022.92 1022.98 1021.48 1020.69 1020.05 1020.23 1019.63 1019.40 1018.01 1016.65 1017.54 1017.95 1022.00
1027.88 1027.53 1027.35 1027.01 1026.64 1026.08 1026.10 1026.49 1025.79 1024.90 1025.23 1025.80 1026.30 1026.15 1025.42 1024.92 1024.44 1024.21 1024.24 1024.52 1024.63 1024.80 1024.70 1024.60 1024.37 1023.54 1022.92 1022.67 1022.47 1022.57 1022.93 1023.80 1024.76 1024.53 1023.32 1022.76 1022.44 1022.49 1021.95 1020.83 1020.66 1021.54 1023.15 1024.58
1027.83 1027.52 1027.34 1027.10 1026.77 1026.30 1026.56 1026.88 1027.08 1027.09 1027.25 1027.01 1027.21 1026.80 1025.87 1025.17 1024.77 1024.62 1024.61 1024.63 1024.97 1025.34 1025.30 1025.02 1024.49 1024.02 1023.44 1022.96 1022.66 1023.16 1023.84 1024.64 1024.69 1023.89 1023.57 1023.63 1024.34 1024.62 1024.64 1024.14 1024.08 1024.26 1026.14 1026.71
1027.63 1027.40 1027.14 1027.04 1026.72 1026.54 1027.09 1027.70 1027.99 1027.93 1027.89 1027.43 1027.22 1026.58 1026.33 1025.67 1025.06 1025.00 1024.72 1024.80 1025.01 1025.19 1025.52 1025.47 1024.99 1024.62 1024.15 1023.64 1023.32 1023.68 1024.13 1024.97 1025.10 1024.62 1024.36 1024.98 1025.80 1026.51 1026.75 1027.01 1026.99 1027.19 1027.60 1028.40
1027.39 1027.15 1027.06 1026.75 1026.61 1026.66 1027.22 1027.28 1027.39 1027.92 1027.82 1027.42 1027.22 1026.82 1026.48 1026.00 1025.35 1024.87 1024.63 1024.60 1024.83 1024.77 1024.69 1024.68 1024.36 1024.19 1024.06 1023.96 1024.22 1024.42 1024.75 1025.49 1025.90 1025.25 1024.93 1025.63 1027.28 1028.50 1028.81 1029.57 1029.84 1029.66 1029.78 1030.33
1027.24 1026.91 1026.74 1026.46 1026.24 1026.26 1026.86 1027.16 1027.47 1027.62 1027.15 1026.98 1026.80 1026.55 1026.39 1026.02 1025.64 1025.14 1024.57 1024.39 1024.60 1024.33 1023.98 1023.81 1023.28 1023.20 1023.24 1023.56 1023.75 1024.16 1024.89 1025.85 1026.26 1026.15 1025.86 1027.54 1030.10 1030.40 1030.32 1030.67 1031.35 1031.48 1031.18 1031.21
1026.96 1026.63 1026.43 1026.05 1025.68 1025.61 1026.22 1026.40 1026.79 1026.75 1026.46 1026.35 1026.29 1026.27 1026.22 1026.03 1025.81 1025.26 1024.62 1024.12 1024.00 1023.99 1024.09 1024.17 1023.68 1023.24 1023.34 1023.43 1023.80 1024.16 1024.87 1026.04 1027.23 1027.94 1028.83 1030.21 1030.65 1031.34 1031.70 1031.54 1032.38 1032.52 1031.96 1031.02
1026.57 1026.20 1025.93 1025.62 1025.37 1025.02 1025.40 1025.56 1025.82 1025.83 1025.87 1025.52 1025.58 1026.06 1026.15 1026.48 1026.11 1025.67 1024.77 1024.14 1023.82 1024.07 1024.47 1024.73 1024.83 1024.50 1024.65 1024.83 1024.95 1024.78 1025.68 1026.63 1028.37 1029.54 1030.73 1031.64 1032.35 1032.08 1032.16 1031.98 1032.80 1032.62 1032.23 1031.94
1026.27 1025.89 1025.49 1025.20 1024.83 1024.50 1024.69 1024.82 1024.96 1025.35 1025.03 1024.81 1025.03 1025.80 1026.22 1026.44 1026.55 1026.40 1025.62 1025.39 1024.71 1024.50 1025.18 1025.70 1025.82 1026.06 1026.07 1026.62 1027.34 1027.83 1028.35 1029.50 1030.96 1031.87 1032.90 1033.69 1033.91 1033.20 1032.15 1032.74 1034.09 1033.31 1033.26 1033.16
1025.72 1025.26 1024.97 1024.70 1024.49 1024.07 1024.20 1024.21 1024.25 1024.67 1024.51 1024.23 1024.42 1024.95 1025.70 1026.14 1026.23 1026.55 1026.19 1025.80 1025.79 1025.75 1026.23 1026.97 1027.26 1027.51 1027.82 1028.94 1030.56 1031.15 1031.98 1033.02 1033.83 1033.93 1034.70 1035.58 1034.91 1034.14 1034.51 1035.31 1034.82 1034.65 1034.50 1034.44
1025.39 1025.02 1024.66 1024.19 1023.75 1023.53 1023.42 1023.76 1023.61 1023.85 1024.23 1024.14 1024.06 1024.28 1024.60 1024.92 1025.31 1025.97 1026.13 1026.08 1026.03 1026.49 1027.31 1028.00 1028.36 1028.94 1029.62 1030.93 1032.85 1033.39 1034.52 1035.14 1035.52 1035.95 1036.22 1036.39 1036.29 1036.39 1036.48 1036.24 1035.88 1035.79 1035.74 1035.46
1024.97 1024.37 1024.05 1023.63 1023.62 1023.16 1023.09 1023.40 1023.76 1023.92 1023.71 1024.35 1024.40 1024.86 1025.53 1025.16 1025.63 1025.73 1025.90 1026.08 1026.12 1026.70 1027.23 1028.30 1029.21 1030.40 1031.49 1032.84 1034.55 1035.45 1036.30 1036.23 1036.50 1036.75 1037.00 1036.91 1036.97 1037.00 1037.03 1036.96 1036.93 1036.44 1036.07 1036.03
1024.72 1024.13 1023.97 1023.61 1023.21 1023.10 1022.94 1023.29 1023.13 1023.72 1023.93 1024.45 1025.41 1025.36 1025.85 1026.17 1026.11 1025.90 1025.93 1026.14 1026.14 1026.77 1027.57 1028.89 1030.39 1031.58 1032.43 1034.22 1035.56 1036.97 1037.92 1037.49 1037.85 1038.05 1037.73 1037.64 1037.60 1037.68 1037.73 1037.61 1037.49 1037.25 1036.98 1036.51
1024.58 1024.11 1023.71 1023.30 1023.01 1023.06 1023.36 1023.34 1023.41 1023.28 1023.81 1024.50 1025.48 1026.15 1026.82 1026.72 1026.67 1026.38 1026.31 1026.57 1026.91 1027.80 1029.00 1030.52 1032.16 1032.80 1033.59 1035.37 1037.19 1039.06 1039.07 1039.13 1038.79 1038.75 1038.51 1038.28 1038.15 1038.19 1038.20 1038.19 1038.06 1037.76 1037.51 1037.11
1024.52 1024.25 1023.76 1023.39 1022.79 1023.06 1023.41 1023.72 1023.81 1023.52 1023.60 1024.58 1025.83 1027.25 1027.48 1027.50 1027.18 1027.12 1027.24 1027.48 1028.04 1028.99 1030.52 1032.10 1033.14 1033.65 1034.39 1036.71 1039.51 1040.00 1039.54 1039.11 1039.02 1039.13 1038.67 1038.47 1038.38 1038.40 1038.64 1038.81 1038.61 1038.29 1037.97 1037.65
1024.39 1024.14 1024.06 1024.09 1023.94 1023.91 1024.61 1025.08 1024.36 1023.99 1023.95 1024.85 1026.29 1027.31 1027.72 1027.66 1027.72 1027.84 1028.20 1028.47 1029.37 1030.21 1031.62 1032.80 1033.88 1034.42 1034.91 1037.74 1040.12 1040.25 1039.82 1039.31 1039.17 1038.95 1038.64 1038.79 1038.77 1038.86 1038.74 1038.83 1038.75 1038.80 1038.48 1038.23
1024.51 1024.32 1024.29 1024.27 1024.29 1024.62 1025.28 1025.18 1024.77 1024.25 1024.79 1025.67 1027.02 1028.07 1028.32 1028.25 1028.10 1028.16 1028.51 1029.52 1030.45 1031.45 1032.61 1033.46 1034.33 1035.24 1036.98 1039.36 1040.47 1040.22 1039.81 1039.32 1039.11 1039.00 1038.70 1038.69 1038.69 1038.68 1038.66 1038.64 1038.68 1038.80 1038.76 1038.45
1024.52 1024.40 1024.46 1024.98 1025.32 1025.80 1026.03 1025.51 1025.44 1025.49 1026.47 1027.76 1029.36 1029.87 1029.60 1029.24 1028.82 1028.65 1029.08 1029.66 1031.32 1032.21 1033.16 1034.17 1034.84 1037.12 1038.99 1040.17 1040.36 1040.08 1039.81 1039.56 1039.16 1038.74 1038.38 1038.37 1038.55 1038.54 1038.42 1038.42 1038.42 1038.67 1038.49 1038.04
1024.50 1024.67 1025.29 1026.37 1026.49 1025.92 1025.90 1026.04 1026.65 1027.41 1028.58 1029.70 1031.24 1031.44 1031.04 1030.76 1030.09 1029.70 1029.96 1030.44 1031.62 1033.01 1034.32 1034.63 1036.37 1038.78 1039.64 1039.86 1039.79 1039.72 1039.56 1039.24 1038.85 1038.64 1038.43 1038.30 1038.28 1038.26 1038.28 1038.31 1038.04 1037.94 1037.80 1037.59
1025.67 1026.26 1027.06 1027.21 1026.46 1026.61 1027.59 1029.08 1029.96 1030.72 1031.80 1032.64 1032.97 1032.84 1032.52 1031.53 1031.35 1031.02 1031.01 1031.45 1032.03 1033.57 1034.76 1035.38 1037.43 1039.38 1039.81 1039.65 1039.59 1039.33 1039.16 1038.93 1038.70 1038.48 1038.27 1038.10 1037.99 1038.01 1037.94 1037.76 1037.60 1037.48 1037.27 1037.01
1026.89 1027.24 1027.74 1028.30 1029.49 1030.30 1031.54 1033.04 1033.37 1033.89 1034.58 1034.60 1034.44 1034.15 1033.43 1032.40 1031.85 1031.71 1031.90 1032.18 1033.21 1034.58 1034.99 1036.38 1038.76 1039.96 1040.02 1039.75 1039.57 1039.37 1039.16 1038.89 1038.64 1038.41 1038.17 1037.99 1037.80 1037.69 1037.64 1037.55 1037.41 1037.25 1037.00 1036.70
1027.80 1028.94 1030.82 1032.18 1034.14 1034.95 1036.49 1037.34 1036.98 1036.81 1036.41 1036.23 1035.93 1035.24 1034.09 1032.98 1032.71 1032.76 1033.23 1033.96 1034.85 1035.32 1036.68 1038.63 1039.98 1040.23 1040.07 1039.90 1039.63 1039.46 1039.28 1039.06 1038.85 1038.56 1038.31 1038.12 1037.85 1037.72 1037.60 1037.51 1037.38 1037.22 1037.02 1036.74
1030.90 1033.18 1035.81 1036.87 1038.82 1039.37 1039.64 1039.34 1038.75 1038.02 1037.56 1037.09 1036.60 1035.90 1035.01 1034.38 1034.24 1034.30 1034.91 1035.55 1035.97 1037.17 1038.56 1040.01 1040.56 1040.45 1040.28 1040.05 1039.87 1039.68 1039.51 1039.34 1039.15 1038.85 1038.56 1038.30 1038.09 1037.87 1037.71 1037.54 1037.40 1037.27 1037.09 1036.80
1034.69 1036.73 1039.36 1040.10 1040.66 1040.75 1040.45 1039.79 1039.13 1038.39 1037.94 1037.61 1037.12 1036.54 1036.13 1036.07 1036.15 1036.29 1036.60 1037.36 1038.63 1039.42 1040.24 1040.65 1040.78 1040.61 1040.46 1040.29 1040.06 1039.85 1039.68 1039.52 1039.36 1039.13 1038.85 1038.48 1038.14 1037.89 1037.80 1037.61 1037.43 1037.23 1037.04 1036.82
1037.96 1040.14 1041.27 1041.16 1041.18 1041.35 1040.75 1040.07 1039.42 1038.62 1038.12 1037.69 1037.73 1038.02 1038.31 1038.33 1038.41 1038.66 1039.17 1039.70 1040.61 1041.02 1041.06 1041.01 1040.81 1040.78 1040.67 1040.51 1040.29 1040.02 1039.79 1039.63 1039.49 1039.31 1039.06 1038.69 1038.32 1038.18 1037.94 1037.59 1037.35 1037.15 1036.96 1036.77
1041.25 1042.56 1041.99 1041.91 1041.87 1041.73 1041.07 1040.34 1039.69 1038.82 1038.52 1039.15 1039.38 1040.40 1040.56 1040.10 1040.41 1040.97 1041.12 1041.61 1041.75 1041.40 1041.23 1041.07 1040.94 1040.92 1040.81 1040.61 1040.43 1040.15 1039.89 1039.72 1039.56 1039.45 1039.21 1038.94 1038.55 1038.27 1037.94 1037.76 1037.45 1037.19 1036.87 1036.74
Thickness
5448 5442 5437 5431 5425 5420 5412 5396 5387 5395 5386 5355 5331 5308 5312 5325 5316 5310 5298 5291 5282 5271 5268 5264 5266 5269 5270 5278 5277 5255 5255 5242 5286 5325 5318 5327 5327 5335 5353 5383 5456 5476 5461 5376
5437 5429 5423 5414 5407 5401 5391 5375 5372 5381 5367 5333 5323 5320 5313 5304 5302 5295 5287 5275 5270 5266 5259 5253 5257 5267 5275 5273 5270 5249 5255 5220 5241 5297 5307 5311 5308 5321 5327 5360 5386 5363 5433 5347
5425 5418 5409 5401 5391 5384 5371 5355 5349 5346 5330 5317 5307 5294 5295 5288 5287 5280 5274 5266 5261 5257 5256 5254 5247 5255 5262 5264 5266 5275 5266 5224 5201 5217 5260 5272 5282 5283 5291 5323 5338 5325 5295 5296
5414 5405 5396 5387 5378 5368 5354 5340 5327 5320 5300 5301 5279 5272 5274 5272 5268 5267 5260 5256 5250 5241 5239 5242 5243 5246 5248 5258 5265 5255 5240 5213 5233 5262 5267 5255 5257 5259 5257 5269 5278 5300 5275 5275
5403 5395 5383 5371 5364 5354 5336 5321 5309 5299 5286 5283 5272 5270 5265 5256 5256 5249 5244 5239 5240 5231 5206 5214 5221 5226 5236 5238 5247 5240 5240 5210 5229 5247 5252 5239 5227 5240 5237 5236 5240 5258 5260 5257
5393 5383 5372 5361 5349 5340 5321 5310 5302 5288 5284 5271 5263 5254 5245 5244 5244 5246 5243 5240 5229 5232 5235 5233 5230 5230 5231 5231 5220 5232 5225 5203 5205 5215 5254 5245 5203 5208 5214 5208 5211 5226 5231 5234
5381 5371 5360 5348 5337 5323 5314 5299 5286 5275 5275 5263 5257 5246 5235 5233 5234 5231 5239 5238 5223 5232 5236 5235 5236 5234 5236 5233 5233 5229 5209 5208 5216 5209 5241 5205 5183 5188 5195 5196 5196 5202 5211 5217
5371 5361 5350 5339 5329 5316 5302 5290 5277 5266 5259 5253 5247 5237 5228 5224 5222 5225 5230 5235 5233 5231 5229 5222 5231 5237 5244 5239 5239 5239 5229 5221 5188 5204 5196 5186 5175 5170 5174 5186 5183 5188 5196 5210
5361 5351 5341 5330 5319 5310 5299 5288 5273 5260 5250 5240 5242 5227 5225 5204 5204 5215 5226 5231 5230 5229 5221 5220 5213 5222 5231 5229 5231 5237 5233 5223 5194 5181 5186 5200 5160 5162 5164 5170 5178 5178 5186 5193
5350 5340 5331 5321 5313 5304 5293 5283 5269 5253 5244 5238 5231 5208 5200 5196 5189 5187 5207 5207 5214 5220 5213 5211 5197 5198 5216 5208 5203 5203 5201 5165 5145 5164 5125 5149 5138 5146 5164 5161 5153 5162 5168 5175
5342 5333 5322 5312 5302 5294 5284 5276 5260 5246 5236 5226 5225 5218 5200 5195 5191 5187 5191 5203 5203 5200 5182 5193 5190 5190 5181 5173 5155 5153 5156 5135 5126 5138 5124 5143 5134 5149 5144 5133 5143 5146 5153 5159
5330 5319 5310 5304 5296 5288 5275 5266 5253 5238 5229 5226 5224 5220 5216 5208 5202 5192 5190 5195 5192 5191 5177 5171 5177 5184 5167 5150 5140 5127 5139 5113 5117 5125 5114 5115 5115 5116 5119 5120 5130 5134 5135 5142
5319 5311 5303 5295 5284 5276 5264 5254 5240 5230 5227 5217 5213 5207 5198 5199 5193 5192 5193 5188 5189 5178 5174 5162 5164 5150 5144 5127 5123 5104 5106 5103 5108 5115 5119 5115 5114 5117 5117 5118 5117 5125 5129 5130
5305 5299 5290 5282 5275 5264 5251 5241 5232 5222 5218 5210 5196 5195 5187 5184 5182 5183 5183 5182 5184 5180 5171 5153 5142 5147 5142 5116 5110 5104 5089 5100 5085 5089 5098 5102 5104 5105 5104 5108 5112 5116 5119 5124
5293 5287 5279 5271 5262 5250 5238 5229 5222 5217 5210 5202 5190 5181 5174 5172 5170 5172 5174 5173 5172 5164 5159 5142 5128 5127 5130 5102 5085 5059 5072 5075 5076 5077 5083 5087 5095 5095 5098 5099 5101 5106 5111 5114
5280 5273 5266 5258 5249 5237 5228 5217 5211 5206 5201 5186 5182 5166 5161 5160 5160 5162 5162 5162 5157 5146 5135 5123 5108 5113 5120 5074 5040 5062 5069 5075 5071 5072 5076 5080 5086 5090 5082 5086 5087 5094 5101 5103
5269 5260 5251 5240 5228 5222 5209 5199 5197 5193 5190 5178 5170 5160 5158 5156 5154 5152 5150 5148 5137 5132 5113 5112 5106 5109 5111 5068 5043 5065 5067 5070 5071 5071 5074 5074 5075 5080 5082 5075 5083 5086 5089 5090
5256 5247 5235 5223 5214 5205 5191 5186 5183 5183 5177 5169 5156 5151 5147 5146 5148 5149 5140 5128 5120 5119 5108 5109 5102 5102 5085 5057 5050 5055 5062 5070 5069 5067 5069 5070 5070 5074 5080 5079 5080 5081 5080 5081
5245 5233 5222 5211 5198 5184 5176 5174 5171 5169 5160 5143 5129 5125 5131 5134 5140 5140 5136 5132 5115 5114 5105 5097 5103 5078 5055 5050 5050 5055 5058 5059 5063 5068 5073 5074 5070 5072 5079 5077 5080 5079 5081 5082
5233 5222 5206 5184 5179 5176 5171 5163 5154 5148 5138 5128 5112 5114 5110 5116 5123 5132 5126 5123 5112 5088 5091 5096 5075 5049 5050 5051 5053 5054 5056 5057 5062 5064 5067 5070 5071 5071 5073 5069 5074 5079 5079 5079
5215 5197 5181 5176 5173 5166 5153 5131 5119 5116 5101 5102 5098 5095 5094 5109 5101 5107 5108 5109 5107 5073 5089 5085 5066 5041 5047 5052 5052 5053 5055 5057 5059 5060 5061 5064 5063 5066 5066 5070 5074 5076 5077 5078
5195 5185 5173 5162 5143 5125 5109 5081 5099 5091 5085 5085 5079 5082 5088 5097 5103 5105 5099 5107 5089 5067 5089 5067 5041 5043 5041 5048 5050 5050 5052 5054 5056 5057 5058 5060 5062 5062 5063 5065 5067 5068 5071 5074
5182 5164 5134 5119 5096 5083 5058 5044 5045 5050 5067 5065 5056 5065 5077 5090 5094 5091 5083 5072 5070 5084 5055 5041 5032 5038 5039 5040 5044 5045 5046 5047 5048 5050 5051 5052 5055 5055 5056 5058 5059 5060 5063 5066
5145 5111 5089 5068 5044 5057 5054 5049 5052 5057 5056 5054 5055 5059 5069 5076 5070 5076 5061 5071 5065 5041 5031 5023 5027 5027 5032 5035 5037 5038 5038 5040 5040 5043 5045 5046 5047 5049 5049 5051 5051 5053 5055 5059
5104 5092 5058 5063 5060 5048 5039 5044 5046 5052 5049 5047 5047 5054 5059 5052 5047 5058 5053 5040 5030 5031 5023 5025 5022 5025 5027 5028 5030 5031 5032 5033 5032 5034 5036 5039 5042 5044 5044 5045 5046 5047 5050 5052
5087 5065 5042 5056 5040 5031 5030 5029 5031 5043 5044 5045 5047 5025 5014 5031 5029 5024 5023 5014 5010 5013 5015 5016 5017 5018 5019 5021 5023 5025 5027 5027 5028 5029 5031 5034 5036 5036 5036 5039 5041 5043 5044 5045
5058 5040 5056 5045 5033 5027 5032 5034 5036 5041 5040 5022 5013 4999 5013 5018 5003 5003 5007 4995 5003 5008 5010 5012 5012 5011 5012 5013 5015 5018 5020 5021 5022 5022 5024 5025 5028 5028 5030 5031 5034 5036 5039 5039